Date,TemperatureHighF,TemperatureAvgF,TemperatureLowF,DewpointHighF,DewpointAvgF,DewpointLowF,HumidityHigh,HumidityAvg,HumidityLow,PressureMaxIn,PressureMinIn,WindSpeedMaxMPH,WindSpeedAvgMPH,GustSpeedMaxMPH,PrecipitationSumIn
2013-2-1,43.4,24.1,2.6,34.0,16.1,-3.3,87,72,53,30.42,29.98,20,6,20,0.00
2013-2-2,50.2,35.8,23.2,37.2,28.0,20.3,91,75,44,30.12,29.96,34,8,34,0.01
2013-2-3,55.4,36.3,17.4,30.4,23.9,14.7,90,65,30,30.16,29.70,27,7,27,0.00
2013-2-4,40.2,29.1,23.4,28.8,24.6,20.9,91,84,63,29.92,29.72,23,7,23,0.00
2013-2-5,49.3,39.0,28.4,31.0,26.5,19.5,86,63,38,29.95,29.75,24,6,24,0.00
2013-2-6,51.9,41.4,33.4,36.1,30.7,25.3,79,66,52,29.91,29.68,29,9,29,0.00
2013-2-7,37.9,30.2,25.0,30.7,26.5,22.5,91,86,75,30.19,29.86,19,6,19,0.00
2013-2-8,35.9,28.7,23.5,30.3,25.4,21.3,92,88,74,30.20,29.92,32,13,32,0.00
2013-2-9,53.2,39.4,29.6,40.1,32.5,26.8,90,78,45,29.92,29.44,33,17,33,0.02
2013-2-10,38.9,32.5,27.6,36.1,29.9,24.1,92,90,85,29.79,29.15,40,13,40,0.10
2013-2-11,29.6,24.3,15.7,24.8,19.2,12.8,89,81,71,30.09,29.80,24,8,35,0.00
2013-2-12,40.4,27.8,13.6,25.3,19.4,10.7,89,72,45,30.07,29.87,19,6,19,0.00
2013-2-13,52.2,36.0,18.6,32.1,26.1,15.4,89,70,40,29.87,29.66,26,6,26,0.00
2013-2-14,41.1,30.4,15.8,31.8,23.2,12.2,87,75,52,30.27,29.77,40,12,40,0.00
2013-2-15,30.2,19.6,4.1,22.9,15.0,0.3,92,82,64,30.36,30.26,32,5,32,0.00
2013-2-16,44.7,26.6,6.0,33.5,21.6,2.9,89,82,61,30.31,29.91,18,5,18,0.00
2013-2-17,63.5,40.0,22.1,34.3,25.0,18.6,88,62,20,29.92,29.45,31,8,31,0.00
2013-2-18,40.7,30.7,17.9,32.4,21.8,12.9,82,70,54,30.07,29.53,41,14,41,0.00
2013-2-19,23.0,13.1,5.3,12.7,3.3,-2.2,92,66,37,30.37,30.07,26,7,26,0.00
2013-2-20,25.2,14.5,4.5,16.8,4.7,-0.6,92,67,41,30.37,30.16,27,9,27,0.00
2013-2-21,19.9,18.1,15.9,15.8,13.6,10.4,90,83,73,30.18,29.93,23,10,23,0.00
2013-2-22,19.7,12.6,1.8,16.5,9.8,-1.2,89,88,87,30.02,29.93,18,5,18,0.01
2013-2-23,35.8,18.4,0.0,27.7,14.1,-3.2,99,84,70,29.98,29.75,14,4,14,0.02
2013-2-24,30.6,23.9,10.1,25.7,20.5,7.7,98,87,80,30.07,29.81,16,3,16,0.00
2013-2-25,37.1,30.3,22.1,29.0,25.7,18.3,91,83,68,30.08,29.92,15,4,15,0.00
2013-2-26,26.2,22.9,18.6,24.1,20.7,16.2,92,91,90,29.97,29.83,19,5,19,0.00
2013-2-27,35.9,28.7,22.0,28.9,24.2,19.3,92,83,74,30.13,29.96,27,10,27,0.00
2013-2-28,29.3,27.1,25.3,25.4,23.5,22.2,89,86,83,30.21,30.11,23,8,23,0.00